Home   Weather   Chico   Past weeks

Flag for USA Past Weather in Chico, California, USA — Yesterday and Last 2 Weeks

57 °F

Partly cloudy.

Feels Like: 54 °F
Forecast: 57 / 63 °F
Wind: 14 mph from Southeast

Location: Chico Municipal

Current Time: Oct 25, 2016 at 6:42:19 AM

Latest Report: Oct 25, 2016 at 5:35 AM

Visibility: 7 mi

Pressure: 30.03 "Hg

Humidity: 100%

Dew Point: 57 °F

Location of ChicoLocation

Past Weather in Chico — Graph


Chico Temperature Yesterday

Maximum temperature yesterday: 64 °F (at 12:47 PM)
Minimum temperature yesterday: 55 °F (at 6:46 AM)
Average temperature yesterday: 60 °F

High & Low Weather Summary for the Past Weeks

High82 °F (Oct 10, 3:47 PM)100% (Oct 14, 5:35 AM)30.25 "Hg (Oct 14, 5:35 AM)
Low46 °F (Oct 19, 4:55 AM)17% (Oct 10, 3:47 PM)29.62 "Hg (Oct 16, 3:55 PM)
Average61 °F68%29.97 "Hg
* Reported Oct 10 5:15 AM — Oct 25 5:15 AM, Chico, Weather by CustomWeather, © 2016

Note: Actual official high and low records may vary slightly from our data, if they occured in-between our weather recording intervals... More about our weather records


Chico Weather History for the Previous 24 Hours

Scroll right to see more
Time TempWeatherWind HumidityBarometerVisibility
5:15 AM
Tue, Oct 25
57 °FPartly cloudy.15 mph100%30.03 "Hg2 mi
4:55 AM57 °FMostly cloudy.16 mph100%30.03 "Hg3 mi
4:15 AM57 °FPassing clouds.14 mph100%30.02 "Hg4 mi
3:55 AM57 °FLow clouds.8 mph100%30.02 "Hg1 mi
3:35 AM57 °FMostly cloudy.13 mph100%30.03 "Hg1 mi
3:15 AM57 °FMostly cloudy.14 mph100%30.02 "Hg1 mi
2:55 AM57 °FPassing clouds.15 mph100%30.02 "Hg5 mi
2:35 AM57 °FMostly cloudy.15 mph100%30.02 "Hg3 mi
2:15 AM57 °FMostly cloudy.16 mph100%30.01 "Hg2 mi
1:55 AM57 °FPartly cloudy.12 mph100%30.01 "Hg2 mi
1:15 AM57 °FPartly cloudy.17 mph100%30.00 "Hg1 mi
12:55 AM57 °FPassing clouds.13 mph100%29.99 "Hg1 mi
12:35 AM57 °FPartly cloudy.18 mph100%29.98 "Hg4 mi
12:15 AM57 °FPartly cloudy.17 mph100%29.99 "Hg3 mi
11:35 PM
Mon, Oct 24
57 °FPartly cloudy.20 mph100%29.99 "Hg7 mi
11:15 PM57 °FPassing clouds.17 mph100%29.99 "Hg6 mi
10:35 PM57 °FPartly cloudy.18 mph100%29.98 "Hg8 mi
10:15 PM57 °FPassing clouds.20 mph100%29.98 "Hg7 mi
9:55 PM59 °FPassing clouds.17 mph94%29.98 "Hg5 mi
9:35 PM59 °FMostly cloudy.16 mph94%29.98 "Hg2 mi
9:15 PM59 °FMostly cloudy.16 mph94%29.96 "Hg10 mi
8:55 PM59 °FMostly cloudy.15 mph94%29.96 "Hg10 mi
8:35 PM59 °FOvercast.18 mph94%29.95 "Hg10 mi
8:15 PM59 °FMostly cloudy.17 mph94%29.95 "Hg10 mi
7:55 PM59 °FOvercast.15 mph94%29.95 "Hg8 mi
7:35 PM59 °FOvercast.14 mph94%29.96 "Hg10 mi
7:15 PM59 °FMostly cloudy.13 mph94%29.96 "Hg10 mi
6:55 PM59 °FPassing clouds.14 mph94%29.95 "Hg10 mi
6:35 PM57 °FPartly cloudy.9 mph100%29.94 "Hg10 mi
6:15 PM57 °FPartly cloudy.8 mph100%29.95 "Hg6 mi
5:55 PM57 °FPartly sunny.6 mph100%29.95 "Hg10 mi
4:50 PM57 °FFog.12 mph100%29.95 "HgN/A
3:50 PM57 °FFog.12 mph100%29.94 "Hg4 mi
2:45 PM59 °FLight rain. Overcast.12 mph94%29.94 "Hg2 mi
1:50 PM63 °FLight rain. Mostly cloudy.10 mph73%29.92 "Hg10 mi
12:47 PM64 °FMostly cloudy.23 mph64%29.95 "Hg10 mi
11:47 AM63 °FMostly cloudy.23 mph68%29.96 "Hg10 mi
10:47 AM63 °FMostly cloudy.17 mph68%29.96 "Hg10 mi
9:50 AM61 °FMostly cloudy.17 mph72%29.96 "Hg10 mi
8:50 AM61 °FCloudy.17 mph72%29.94 "Hg10 mi
7:48 AM59 °FBroken clouds.14 mph72%29.92 "Hg20 mi
6:46 AM55 °FPassing clouds.12 mph82%29.91 "Hg10 mi
Weather by CustomWeather, © 2016

See weather overviewHow to use our weather pages